Weather History for Wauseon Fulton County Airport, OH

Change the Weather History Date:

Friday, March 14, 2014

  Actual Average (KTOL) Record (KTOL)
Temperature  
Mean Temperature 37 °F 37 °F  
Max Temperature 50 °F 46 °F 79 °F (1990)
Min Temperature 24 °F 28 °F 4 °F (1895)
Degree Days  
Heating Degree Days 28 28  
Month to date heating degree days 429  
Since 1 July heating degree days 5005  
Cooling Degree Days 0 0  
Month to date cooling degree days 0  
Year to date cooling degree days 0  
Moisture  
Dew Point 28 °F    
Average Humidity 67    
Maximum Humidity 76    
Minimum Humidity 54    
Precipitation  
Precipitation 0.00 in 0.08 in 0.72 in (1997)
Month to date precipitation 1.05  
Year to date precipitation 5.17  
Snow  
Snow 0.00 in 0.10 in - ()
Month to date snowfall 3.2  
Since 1 July snowfall 33.7  
Snow Depth -    
Sea Level Pressure  
Sea Level Pressure 29.75 in    
Wind  
Wind Speed 13 mph (SW)    
Max Wind Speed 26 mph    
Max Gust Speed 34 mph    
Visibility 10 miles    
Events      
T = Trace of Precipitation, MM = Missing Value Source: NWS Daily Summary

Daily Weather History Graph

Daily Weather History Graph

Search for Another Location

Airport:

Trip Planner

Search our weather history database for the weather conditions in past years. The results will help you decide how hot, cold, wet, or windy it might be!

Date:

Astronomy

Mar. 14, 2014 Rise Set
Actual Time 7:49 AM EDT 7:42 PM EDT
Civil Twilight 7:22 AM EDT 8:09 PM EDT
Nautical Twilight 6:50 AM EDT 8:41 PM EDT
Astronomical Twilight 6:17 AM EDT 9:14 PM EDT
Moon 6:02 PM EDT (3/14) 6:30 AM EDT (3/14)
Length of Visible Light 12h 47m
Length of Day
11h 52m
Waxing Gibbous, 96% of the Moon is Illuminated
Mar 14
Waxing Gibbous
Mar 16
Full
Mar 23
Last Quarter
Mar 30
New
Apr 7
First Quarter

Hourly Weather History & Observations

Time (EDT) Temp. Windchill Dew Point Humidity Pressure Visibility Wind Dir Wind Speed Gust Speed Precip Events Conditions
12:15 AM 24.8 °F 15.3 °F 17.6 °F 74% 29.96 in 10.0 mi SSW 9.2 mph - N/A   Clear
12:35 AM 24.8 °F 16.1 °F 17.6 °F 74% 29.95 in 10.0 mi SSW 8.1 mph - N/A   Clear
12:55 AM 24.8 °F 15.3 °F 17.6 °F 74% 29.94 in 10.0 mi SSW 9.2 mph - N/A   Clear
1:15 AM 24.8 °F 15.3 °F 17.6 °F 74% 29.93 in 10.0 mi SSW 9.2 mph - N/A   Clear
1:35 AM 24.8 °F 16.1 °F 17.6 °F 74% 29.93 in 10.0 mi SSW 8.1 mph - N/A   Clear
1:55 AM 24.8 °F 15.3 °F 17.6 °F 74% 29.92 in 10.0 mi SSW 9.2 mph - N/A   Clear
2:15 AM 24.8 °F 16.1 °F 17.6 °F 74% 29.92 in 10.0 mi SSW 8.1 mph - N/A   Clear
2:35 AM 24.8 °F 15.3 °F 17.6 °F 74% 29.92 in 10.0 mi SSW 9.2 mph - N/A   Clear
2:55 AM 24.8 °F 16.1 °F 17.6 °F 74% 29.91 in 10.0 mi SSW 8.1 mph - N/A   Clear
3:15 AM 26.6 °F 17.5 °F 19.4 °F 74% 29.91 in 10.0 mi SSW 9.2 mph - N/A   Clear
3:35 AM 26.6 °F 19.1 °F 19.4 °F 74% 29.90 in 10.0 mi SW 6.9 mph - N/A   Clear
3:55 AM 30.2 °F 21.3 °F 21.2 °F 69% 29.89 in 10.0 mi SW 10.4 mph 16.1 mph N/A   Clear
4:15 AM 30.2 °F 20.8 °F 21.2 °F 69% 29.88 in 10.0 mi SW 11.5 mph - N/A   Clear
4:35 AM 30.2 °F 20.8 °F 21.2 °F 69% 29.87 in 10.0 mi SW 11.5 mph - N/A   Clear
4:55 AM 30.2 °F 20.8 °F 21.2 °F 69% 29.86 in 10.0 mi SW 11.5 mph - N/A   Clear
5:15 AM 30.2 °F 22.6 °F 21.2 °F 69% 29.86 in 10.0 mi SW 8.1 mph - N/A   Clear
5:35 AM 30.2 °F 21.9 °F 21.2 °F 69% 29.85 in 10.0 mi SW 9.2 mph - N/A   Clear
5:55 AM 30.2 °F 20.8 °F 21.2 °F 69% 29.84 in 10.0 mi SSW 11.5 mph - N/A   Clear
6:15 AM 30.2 °F 20.2 °F 23.0 °F 75% 29.83 in 10.0 mi SSW 12.7 mph - N/A   Clear
6:35 AM 30.2 °F 20.2 °F 23.0 °F 75% 29.82 in 10.0 mi SSW 12.7 mph - N/A   Clear
6:55 AM 30.2 °F 20.2 °F 23.0 °F 75% 29.82 in 10.0 mi SSW 12.7 mph - N/A   Clear
7:15 AM 30.2 °F 20.2 °F 23.0 °F 75% 29.81 in 10.0 mi SSW 12.7 mph - N/A   Clear
8:15 AM 32.0 °F 21.2 °F 24.8 °F 75% 29.79 in 10.0 mi SSW 16.1 mph - N/A   Clear
8:35 AM 32.0 °F 21.2 °F 24.8 °F 75% 29.79 in 10.0 mi SSW 16.1 mph - N/A   Clear
8:55 AM 33.8 °F 23.9 °F 24.8 °F 70% 29.79 in 10.0 mi SSW 15.0 mph - N/A   Clear
9:15 AM 33.8 °F 23.9 °F 26.6 °F 75% 29.78 in 10.0 mi SSW 15.0 mph - N/A   Clear
9:35 AM 35.6 °F 25.9 °F 26.6 °F 70% 29.77 in 10.0 mi SSW 16.1 mph - N/A   Clear
9:55 AM 37.4 °F 27.8 °F 28.4 °F 70% 29.76 in 10.0 mi SW 17.3 mph - N/A   Clear
10:15 AM 39.2 °F 30.5 °F 28.4 °F 65% 29.76 in 10.0 mi SW 16.1 mph 27.6 mph N/A   Clear
10:35 AM 41.0 °F 32.2 °F 28.4 °F 61% 29.75 in 10.0 mi SW 18.4 mph 27.6 mph N/A   Clear
10:55 AM 41.0 °F 31.9 °F 30.2 °F 65% 29.75 in 10.0 mi SW 19.6 mph 28.8 mph N/A   Clear
11:15 AM 41.0 °F 31.4 °F 30.2 °F 65% 29.74 in 10.0 mi SW 21.9 mph 27.6 mph N/A   Clear
11:35 AM 41.0 °F 32.2 °F 30.2 °F 65% 29.74 in 10.0 mi SW 18.4 mph 25.3 mph N/A   Clear
11:55 AM 42.8 °F 34.0 °F 30.2 °F 61% 29.74 in 10.0 mi SW 20.7 mph 29.9 mph N/A   Clear
12:15 PM 42.8 °F 33.8 °F 30.2 °F 61% 29.71 in 10.0 mi SSW 21.9 mph 28.8 mph N/A   Clear
12:35 PM 42.8 °F - 30.2 °F 61% 29.71 in 10.0 mi North - - N/A   Clear
12:55 PM 44.6 °F 36.6 °F 30.2 °F 57% 29.69 in 10.0 mi SW 19.6 mph - N/A   Clear
1:15 PM 44.6 °F 36.9 °F 30.2 °F 57% 29.68 in 10.0 mi SW 18.4 mph - N/A   Clear
1:35 PM 44.6 °F 38.8 °F 32.0 °F 61% 29.68 in 10.0 mi SW 11.5 mph 20.7 mph N/A   Clear
1:55 PM 44.6 °F 37.8 °F 32.0 °F 61% 29.67 in 10.0 mi SSW 15.0 mph - N/A   Clear
2:15 PM 44.6 °F 37.2 °F 32.0 °F 61% 29.66 in 10.0 mi SSW 17.3 mph - N/A   Clear
2:35 PM 46.4 °F 39.8 °F 32.0 °F 57% 29.65 in 10.0 mi SSW 16.1 mph - N/A   Clear
2:55 PM 46.4 °F 39.5 °F 32.0 °F 57% 29.63 in 10.0 mi SSW 17.3 mph - N/A   Clear
3:15 PM 46.4 °F 39.8 °F 33.8 °F 62% 29.62 in 10.0 mi SSW 16.1 mph - N/A   Clear
3:35 PM 48.2 °F - 33.8 °F 58% 29.63 in 10.0 mi SW 17.3 mph 24.2 mph N/A   Clear
3:55 PM 48.2 °F - 33.8 °F 58% 29.62 in 10.0 mi SW 19.6 mph 25.3 mph N/A   Clear
4:15 PM 48.2 °F - 33.8 °F 58% 29.61 in 10.0 mi SW 17.3 mph 25.3 mph N/A   Clear
4:35 PM 50.0 °F - 33.8 °F 54% 29.62 in 10.0 mi SW 16.1 mph 24.2 mph N/A   Clear
4:55 PM 50.0 °F - 33.8 °F 54% 29.61 in 10.0 mi WSW 18.4 mph 26.5 mph N/A   Clear
5:15 PM 50.0 °F - 33.8 °F 54% 29.61 in 10.0 mi SW 18.4 mph - N/A   Clear
5:35 PM 50.0 °F - 33.8 °F 54% 29.61 in 10.0 mi SW 18.4 mph 24.2 mph N/A   Clear
5:55 PM 48.2 °F - 33.8 °F 58% 29.61 in 10.0 mi WSW 12.7 mph 19.6 mph N/A   Mostly Cloudy
6:15 PM 48.2 °F - 33.8 °F 58% 29.62 in 10.0 mi WSW 13.8 mph - N/A   Scattered Clouds
6:35 PM 48.2 °F - 33.8 °F 58% 29.62 in 10.0 mi WSW 17.3 mph 24.2 mph N/A   Mostly Cloudy
6:55 PM 48.2 °F - 33.8 °F 58% 29.63 in 10.0 mi WSW 16.1 mph 21.9 mph N/A   Overcast
7:15 PM 48.2 °F - 33.8 °F 58% 29.64 in 10.0 mi WSW 15.0 mph 25.3 mph N/A   Overcast
7:35 PM 46.4 °F 40.1 °F 35.6 °F 66% 29.65 in 10.0 mi WSW 15.0 mph - N/A   Mostly Cloudy
7:55 PM 44.6 °F 37.4 °F 35.6 °F 71% 29.66 in 10.0 mi WSW 16.1 mph - N/A   Mostly Cloudy
8:15 PM 44.6 °F 36.6 °F 35.6 °F 71% 29.67 in 10.0 mi West 19.6 mph - N/A   Scattered Clouds
8:35 PM 44.6 °F 36.9 °F 35.6 °F 71% 29.68 in 10.0 mi West 18.4 mph - N/A   Clear
8:55 PM 44.6 °F 36.6 °F 33.8 °F 66% 29.68 in 10.0 mi West 19.6 mph 25.3 mph N/A   Clear
9:15 PM 44.6 °F 37.2 °F 33.8 °F 66% 29.69 in 10.0 mi West 17.3 mph - N/A   Clear
9:35 PM 42.8 °F 36.2 °F 33.8 °F 70% 29.70 in 10.0 mi West 12.7 mph 19.6 mph N/A   Clear
9:55 PM 42.8 °F 34.3 °F 33.8 °F 70% 29.71 in 10.0 mi West 19.6 mph 25.3 mph N/A   Clear
10:15 PM 41.0 °F 32.2 °F 33.8 °F 76% 29.72 in 10.0 mi West 18.4 mph - N/A   Clear
10:35 PM 41.0 °F 33.5 °F 32.0 °F 70% 29.73 in 10.0 mi West 13.8 mph - N/A   Clear
10:55 PM 41.0 °F 30.5 °F 32.0 °F 70% 29.73 in 10.0 mi West 26.5 mph 34.5 mph N/A   Clear
11:15 PM 41.0 °F 32.2 °F 32.0 °F 70% 29.74 in 10.0 mi West 18.4 mph 27.6 mph N/A   Clear
11:35 PM 39.2 °F 29.8 °F 32.0 °F 75% 29.75 in 10.0 mi WNW 18.4 mph - N/A   Clear
11:55 PM 39.2 °F 30.2 °F 32.0 °F 75% 29.76 in 10.0 mi WNW 17.3 mph 24.2 mph N/A   Clear